Погода в Саудакенте

Казахстан     43°44′14″N   69°54′47″E
темп.,
°C
ветер,
м/с
пор.,
м/с
влажн.,
%
обл.,
%
осадки,
мм/ч
давл.,
гПа
погр.,
м
1 июля, пт
пт100:00+24сз34160 0.0 100767
03:00+22сз22210 0.0 100811
06:00+20зсз22240 0.0 100912
09:00+24сз21190 0.0 1009526
12:00+28ссз22140 0.0 10081581
15:00+31ссз44110 0.0 10072166
18:00+32ссз54100 0.0 10062571
21:00+28ссв58120 0.0 1006166
2 июля, сб
сб200:00+25ссв47170 0.0 1008115
03:00+22в22210 0.0 100715
06:00+20в11240 0.0 100711
09:00+26св23180 0.0 1008440
12:00+31св32120 0.0 10061565
15:00+33с33100 0.0 10042442
18:00+34с3390 0.0 10042291
21:00+30св58120 0.0 1003129
3 июля, вс
вс300:00+27всв46140 0.0 100383
03:00+24вюв33170 0.0 100324
06:00+23вюв33180 0.0 100324
09:00+29вюв56130 0.0 1004483
12:00+35вюв5590 0.0 10021606
15:00+38всв359100 0.0 10002667
18:00+38сз359100 0.0 9992603
21:00+35с331283 0.0 99829
4 июля, пн
пн400:00+32в331495 0.0 99826
03:00+28вюв461728 0.0 99680
06:00+27вюв331994 0.0 99630
09:00+33зюз2313100 0.0 995370
12:00+40зюз91311100 0.0 9942807
15:00+40зюз15191297 0.0 9943383
18:00+38з131512100 0.0 9953500
21:00+31з111319100 0.0 10001482
5 июля, вт
вт500:00+25сз11122791 0.0 1002929
03:00+24зюз81428100 0.0 10041605
06:00+21зюз913384 0.0 1006877
09:00+23зюз1114350 0.0 10071358
12:00+28зюз1011250 0.0 10072168
15:00+31з89190 0.0 10062812
18:00+31з77180 0.0 10063136
21:00+27сз45230 0.0 100688